Time,TemperatureF,DewpointF,PressureIn,WindDirection,WindDirectionDegrees,WindSpeedMPH,WindSpeedGustMPH,Humidity,HourlyPrecipIn,Conditions,Clouds,dailyrainin,SolarRadiationWatts/m^2,SoftwareType,DateUTC
2013-12-21 00:00:00,47.0,41.1,29.56,SSW,205,13.0,20.0,80,0.00,RA,,0.00,0.0,WeatherDisplay:10.37,2013-12-21 00:00:00,
2013-12-21 00:10:00,47.6,42.3,29.56,SSW,205,14.0,25.0,82,0.00,CLR,,0.00,0.0,WeatherDisplay:10.37,2013-12-21 00:10:00,
2013-12-21 00:15:00,47.9,42.7,29.56,SSW,200,14.0,22.0,82,0.00,CLR,,0.00,0.0,WeatherDisplay:10.37,2013-12-21 00:15:00,
2013-12-21 00:25:00,48.3,42.5,29.55,SSW,204,17.0,26.0,80,0.00,CLR,,0.00,0.0,WeatherDisplay:10.37,2013-12-21 00:25:00,
2013-12-21 00:30:00,48.6,42.7,29.56,SSW,199,15.0,25.0,80,0.00,CLR,,0.00,0.0,WeatherDisplay:10.37,2013-12-21 00:30:00,
2013-12-21 00:40:00,49.1,43.2,29.55,SSW,199,20.0,27.0,80,0.00,CLR,,0.00,0.0,WeatherDisplay:10.37,2013-12-21 00:40:00,
2013-12-21 00:45:00,49.1,43.2,29.55,SSW,196,14.0,24.0,80,0.00,CLR,,0.00,0.0,WeatherDisplay:10.37,2013-12-21 00:45:00,
2013-12-21 00:50:00,49.1,43.5,29.55,SSW,204,14.0,31.0,81,0.00,CLR,,0.00,0.0,WeatherDisplay:10.37,2013-12-21 00:50:00,
2013-12-21 01:00:00,48.6,43.0,29.55,SSW,209,18.0,31.0,81,0.00,CLR,,0.00,0.0,WeatherDisplay:10.37,2013-12-21 01:00:00,
2013-12-21 01:10:00,48.7,42.5,29.56,SSW,203,14.0,25.0,79,0.00,CLR,,0.00,0.0,WeatherDisplay:10.37,2013-12-21 01:10:00,
2013-12-21 01:15:00,48.8,42.6,29.55,SSW,209,17.0,28.0,79,0.00,CLR,,0.00,0.0,WeatherDisplay:10.37,2013-12-21 01:15:00,
2013-12-21 01:25:00,48.8,41.9,29.55,SSW,206,16.0,25.0,77,0.00,CLR,,0.00,0.0,WeatherDisplay:10.37,2013-12-21 01:25:00,
2013-12-21 01:30:00,48.7,41.8,29.55,SSW,209,16.0,25.0,77,0.00,CLR,,0.00,0.0,WeatherDisplay:10.37,2013-12-21 01:30:00,
2013-12-21 01:40:00,48.6,42.0,29.55,SSW,211,15.0,24.0,78,0.00,CLR,,0.00,0.0,WeatherDisplay:10.37,2013-12-21 01:40:00,
2013-12-21 01:45:00,48.7,42.8,29.55,SSW,205,12.0,20.0,80,0.00,CLR,,0.00,0.0,WeatherDisplay:10.37,2013-12-21 01:45:00,
2013-12-21 01:50:00,48.8,42.6,29.54,SSW,205,17.0,25.0,79,0.00,CLR,,0.00,0.0,WeatherDisplay:10.37,2013-12-21 01:50:00,
2013-12-21 01:55:00,49.0,42.1,29.54,SSW,204,16.0,24.0,77,0.00,CLR,,0.00,0.0,WeatherDisplay:10.37,2013-12-21 01:55:00,
2013-12-21 02:00:00,49.1,42.2,29.54,SSW,207,16.0,23.0,77,0.00,CLR,,0.00,0.0,WeatherDisplay:10.37,2013-12-21 02:00:00,
2013-12-21 02:10:00,49.2,42.6,29.54,SSW,198,16.0,31.0,78,0.00,CLR,,0.00,0.0,WeatherDisplay:10.37,2013-12-21 02:10:00,
2013-12-21 02:15:00,49.4,43.2,29.54,SSW,196,14.0,24.0,79,0.00,CLR,,0.00,0.0,WeatherDisplay:10.37,2013-12-21 02:15:00,
2013-12-21 02:20:00,49.4,43.2,29.54,SSW,193,16.0,25.0,79,0.00,CLR,,0.00,0.0,WeatherDisplay:10.37,2013-12-21 02:20:00,
2013-12-21 02:25:00,49.4,42.5,29.54,SSW,195,17.0,27.0,77,0.00,CLR,,0.00,0.0,WeatherDisplay:10.37,2013-12-21 02:25:00,
2013-12-21 02:30:00,49.4,42.5,29.54,SSW,206,14.0,26.0,77,0.00,CLR,,0.00,0.0,WeatherDisplay:10.37,2013-12-21 02:30:00,
2013-12-21 02:40:00,49.3,41.7,29.54,SSW,202,18.0,28.0,75,0.00,CLR,,0.00,0.0,WeatherDisplay:10.37,2013-12-21 02:40:00,
2013-12-21 02:45:00,49.1,41.9,29.54,SSW,195,18.0,29.0,76,0.00,CLR,,0.00,0.0,WeatherDisplay:10.37,2013-12-21 02:45:00,
2013-12-21 02:50:00,49.0,42.5,29.54,SSW,196,14.0,26.0,78,0.00,CLR,,0.00,0.0,WeatherDisplay:10.37,2013-12-21 02:50:00,
2013-12-21 03:00:00,48.9,42.7,29.54,SSW,194,14.0,26.0,79,0.00,CLR,,0.00,0.0,WeatherDisplay:10.37,2013-12-21 03:00:00,
2013-12-21 03:10:00,48.7,43.1,29.53,SSW,196,15.0,24.0,81,0.00,CLR,,0.00,0.0,WeatherDisplay:10.37,2013-12-21 03:10:00,
2013-12-21 03:15:00,48.7,43.4,29.53,SSW,197,17.0,25.0,82,0.00,CLR,,0.00,0.0,WeatherDisplay:10.37,2013-12-21 03:15:00,
2013-12-21 03:20:00,48.5,43.6,29.53,SSW,198,18.0,30.0,83,0.00,CLR,,0.00,0.0,WeatherDisplay:10.37,2013-12-21 03:20:00,
2013-12-21 03:30:00,47.8,43.8,29.53,SSW,199,13.0,22.0,86,0.00,CLR,,0.00,0.0,WeatherDisplay:10.37,2013-12-21 03:30:00,
2013-12-21 03:40:00,47.6,43.0,29.53,South,187,15.0,28.0,84,0.00,CLR,,0.00,0.0,WeatherDisplay:10.37,2013-12-21 03:40:00,
2013-12-21 03:45:00,47.7,43.1,29.53,South,189,17.0,25.0,84,0.00,CLR,,0.00,0.0,WeatherDisplay:10.37,2013-12-21 03:45:00,
2013-12-21 03:50:00,47.8,42.9,29.53,SSW,196,14.0,24.0,83,0.00,CLR,,0.00,0.0,WeatherDisplay:10.37,2013-12-21 03:50:00,
2013-12-21 04:00:00,47.9,42.7,29.53,SSW,193,14.0,20.0,82,0.00,CLR,,0.00,0.0,WeatherDisplay:10.37,2013-12-21 04:00:00,
2013-12-21 04:10:00,47.8,42.3,29.52,SSW,201,14.0,23.0,81,0.00,CLR,,0.00,0.0,WeatherDisplay:10.37,2013-12-21 04:10:00,
2013-12-21 04:15:00,47.8,42.3,29.52,SSW,199,15.0,24.0,81,0.00,CLR,,0.00,0.0,WeatherDisplay:10.37,2013-12-21 04:15:00,
2013-12-21 04:20:00,47.7,42.5,29.52,SSW,195,17.0,25.0,82,0.00,CLR,,0.00,0.0,WeatherDisplay:10.37,2013-12-21 04:20:00,
2013-12-21 04:25:00,47.7,42.5,29.51,South,190,14.0,22.0,82,0.00,CLR,,0.00,0.0,WeatherDisplay:10.37,2013-12-21 04:25:00,
2013-12-21 04:30:00,47.7,42.5,29.51,SSW,192,15.0,22.0,82,0.00,CLR,,0.00,0.0,WeatherDisplay:10.37,2013-12-21 04:30:00,
2013-12-21 04:35:00,47.7,42.5,29.51,SSW,196,15.0,22.0,82,0.00,CLR,,0.00,0.0,WeatherDisplay:10.37,2013-12-21 04:35:00,
2013-12-21 04:40:00,47.8,42.9,29.50,SSW,192,12.0,22.0,83,0.00,CLR,,0.00,0.0,WeatherDisplay:10.37,2013-12-21 04:40:00,
2013-12-21 04:45:00,47.9,43.3,29.50,South,191,10.0,20.0,84,0.00,CLR,,0.00,0.0,WeatherDisplay:10.37,2013-12-21 04:45:00,
2013-12-21 04:50:00,48.0,43.7,29.50,SSW,192,13.0,26.0,85,0.00,CLR,,0.00,0.0,WeatherDisplay:10.37,2013-12-21 04:50:00,
2013-12-21 04:55:00,48.1,43.8,29.49,South,191,15.0,24.0,85,0.00,CLR,,0.00,0.0,WeatherDisplay:10.37,2013-12-21 04:55:00,
2013-12-21 05:00:00,48.2,43.9,29.49,South,185,12.0,25.0,85,0.00,CLR,,0.00,0.0,WeatherDisplay:10.37,2013-12-21 05:00:00,
2013-12-21 05:05:00,48.2,43.9,29.49,South,185,15.0,22.0,85,0.00,CLR,,0.00,0.0,WeatherDisplay:10.37,2013-12-21 05:05:00,
2013-12-21 05:10:00,48.3,43.7,29.49,South,190,13.0,20.0,84,0.00,CLR,,0.00,0.0,WeatherDisplay:10.37,2013-12-21 05:10:00,
2013-12-21 05:15:00,48.4,44.1,29.49,SSW,197,14.0,23.0,85,0.00,CLR,,0.00,0.0,WeatherDisplay:10.37,2013-12-21 05:15:00,
2013-12-21 05:20:00,48.5,44.2,29.48,SSW,197,14.0,25.0,85,0.00,CLR,,0.00,0.0,WeatherDisplay:10.37,2013-12-21 05:20:00,
2013-12-21 05:25:00,48.7,44.1,29.48,SSW,200,14.0,22.0,84,0.00,CLR,,0.00,0.0,WeatherDisplay:10.37,2013-12-21 05:25:00,
2013-12-21 05:30:00,48.9,43.6,29.48,SSW,198,12.0,20.0,82,0.00,CLR,,0.00,0.0,WeatherDisplay:10.37,2013-12-21 05:30:00,
2013-12-21 05:35:00,49.1,43.5,29.48,SSW,197,15.0,25.0,81,0.00,CLR,,0.00,0.0,WeatherDisplay:10.37,2013-12-21 05:35:00,
2013-12-21 05:40:00,49.0,43.8,29.47,SSW,201,15.0,25.0,82,0.00,CLR,,0.00,0.0,WeatherDisplay:10.37,2013-12-21 05:40:00,
2013-12-21 05:45:00,48.4,42.5,29.48,SSW,204,17.0,29.0,80,0.01,RA,,0.01,0.0,WeatherDisplay:10.37,2013-12-21 05:45:00,
2013-12-21 05:55:00,46.8,43.5,29.48,SSW,201,14.0,35.0,88,0.00,RA,,0.02,0.0,WeatherDisplay:10.37,2013-12-21 05:55:00,
2013-12-21 06:00:00,46.7,43.0,29.48,SSW,200,20.0,27.0,87,0.00,,,0.02,0.0,WeatherDisplay:10.37,2013-12-21 06:00:00,
2013-12-21 06:10:00,46.5,42.8,29.48,SSW,198,13.0,27.0,87,0.00,CLR,,0.02,0.0,WeatherDisplay:10.37,2013-12-21 06:10:00,
2013-12-21 06:15:00,46.3,42.9,29.47,SSW,194,14.0,25.0,88,0.00,CLR,,0.02,0.0,WeatherDisplay:10.37,2013-12-21 06:15:00,
2013-12-21 06:20:00,46.2,42.5,29.47,South,187,13.0,21.0,87,0.00,CLR,,0.02,0.0,WeatherDisplay:10.37,2013-12-21 06:20:00,
2013-12-21 06:30:00,46.2,42.6,29.47,SSW,201,16.0,27.0,87,0.00,CLR,,0.02,0.0,WeatherDisplay:10.37,2013-12-21 06:30:00,
2013-12-21 06:40:00,46.6,42.7,29.47,SSW,201,18.0,26.0,86,0.00,CLR,,0.02,0.0,WeatherDisplay:10.37,2013-12-21 06:40:00,
2013-12-21 06:45:00,46.6,42.6,29.47,SSW,198,15.0,23.0,86,0.01,RA,,0.02,0.0,WeatherDisplay:10.37,2013-12-21 06:45:00,
2013-12-21 06:55:00,45.2,41.3,29.49,SW,224,12.0,27.0,86,0.00,RA,,0.03,0.0,WeatherDisplay:10.37,2013-12-21 06:55:00,
2013-12-21 07:00:00,44.1,40.7,29.49,SW,223,14.0,24.0,88,0.02,RA,,0.05,0.0,WeatherDisplay:10.37,2013-12-21 07:00:00,
2013-12-21 07:10:00,43.4,40.9,29.48,SW,222,13.0,21.0,91,0.00,,,0.05,0.0,WeatherDisplay:10.37,2013-12-21 07:10:00,
2013-12-21 07:15:00,43.4,40.9,29.48,SW,222,12.0,24.0,91,0.00,CLR,,0.05,0.0,WeatherDisplay:10.37,2013-12-21 07:15:00,
2013-12-21 07:20:00,43.4,40.9,29.48,SW,224,12.0,20.0,91,0.00,CLR,,0.05,0.0,WeatherDisplay:10.37,2013-12-21 07:20:00,
2013-12-21 07:30:00,43.6,41.1,29.47,SSW,209,10.0,16.0,91,0.00,CLR,,0.05,0.0,WeatherDisplay:10.37,2013-12-21 07:30:00,
2013-12-21 07:40:00,43.8,41.3,29.47,SSW,202,8.0,13.0,91,0.00,CLR,,0.05,0.0,WeatherDisplay:10.37,2013-12-21 07:40:00,
2013-12-21 07:45:00,44.1,41.6,29.47,SSW,198,8.0,15.0,91,0.00,CLR,,0.05,0.0,WeatherDisplay:10.37,2013-12-21 07:45:00,
2013-12-21 07:55:00,45.2,42.4,29.47,SSW,198,14.0,21.0,90,0.00,CLR,,0.05,0.0,WeatherDisplay:10.37,2013-12-21 07:55:00,
2013-12-21 08:00:00,45.7,42.6,29.48,South,190,9.0,17.0,89,0.00,CLR,,0.05,0.0,WeatherDisplay:10.37,2013-12-21 08:00:00,
2013-12-21 08:10:00,46.4,42.7,29.47,SSW,194,12.0,20.0,87,0.00,CLR,,0.05,0.0,WeatherDisplay:10.37,2013-12-21 08:10:00,
2013-12-21 08:15:00,46.6,43.0,29.47,SSW,202,12.0,21.0,87,0.00,CLR,,0.05,0.0,WeatherDisplay:10.37,2013-12-21 08:15:00,
2013-12-21 08:20:00,46.8,43.1,29.47,SSW,208,12.0,21.0,87,0.00,OVC,,0.05,0.0,WeatherDisplay:10.37,2013-12-21 08:20:00,
2013-12-21 08:30:00,46.9,42.6,29.47,SSW,199,14.0,24.0,85,0.00,OVC,,0.05,0.0,WeatherDisplay:10.37,2013-12-21 08:30:00,
2013-12-21 08:40:00,47.1,43.1,29.47,SSW,206,12.0,20.0,86,0.00,OVC,,0.05,7.0,WeatherDisplay:10.37,2013-12-21 08:40:00,
2013-12-21 08:50:00,47.3,43.3,29.47,SSW,198,13.0,22.0,86,0.00,OVC,,0.05,0.0,WeatherDisplay:10.37,2013-12-21 08:50:00,
2013-12-21 08:55:00,47.5,43.2,29.47,SSW,197,13.0,21.0,85,0.00,CLR,,0.05,7.0,WeatherDisplay:10.37,2013-12-21 08:55:00,
2013-12-21 09:01:00,47.5,43.2,29.46,SSW,194,13.0,23.0,85,0.00,CLR,,0.05,21.0,WeatherDisplay:10.37,2013-12-21 09:01:00,
2013-12-21 09:11:00,47.8,43.2,29.46,SSW,200,15.0,25.0,84,0.00,CLR,,0.05,25.0,WeatherDisplay:10.37,2013-12-21 09:11:00,
2013-12-21 09:20:00,48.0,42.8,29.46,SSW,207,12.0,20.0,82,0.00,BKN,,0.05,7.0,WeatherDisplay:10.37,2013-12-21 09:20:00,
2013-12-21 09:25:00,48.1,43.8,29.46,SSW,208,16.0,25.0,85,0.00,BKN,,0.05,11.0,WeatherDisplay:10.37,2013-12-21 09:25:00,
2013-12-21 09:30:00,48.2,43.3,29.46,SSW,206,13.0,22.0,83,0.00,BKN,,0.05,5.0,WeatherDisplay:10.37,2013-12-21 09:30:00,
2013-12-21 09:40:00,48.0,43.7,29.46,SSW,193,12.0,22.0,85,0.00,BKN,,0.05,7.0,WeatherDisplay:10.37,2013-12-21 09:40:00,
2013-12-21 09:45:00,47.9,43.3,29.45,SSW,195,13.0,21.0,84,0.00,BKN,,0.05,5.0,WeatherDisplay:10.37,2013-12-21 09:45:00,
2013-12-21 09:50:00,47.9,43.0,29.45,South,191,15.0,23.0,83,0.00,BKN,,0.05,5.0,WeatherDisplay:10.37,2013-12-21 09:50:00,
2013-12-21 10:00:00,46.3,41.7,29.47,SW,218,20.0,36.0,84,0.02,RA,,0.06,0.0,WeatherDisplay:10.37,2013-12-21 10:00:00,
2013-12-21 10:10:00,43.2,40.2,29.46,SW,216,14.0,23.0,89,0.01,RA,,0.11,0.0,WeatherDisplay:10.37,2013-12-21 10:10:00,
2013-12-21 10:20:00,43.0,40.6,29.46,SSW,206,12.0,18.0,91,0.00,RA,,0.13,16.0,WeatherDisplay:10.37,2013-12-21 10:20:00,
2013-12-21 10:25:00,43.0,40.8,29.47,SSW,202,9.0,20.0,92,0.00,BKN,,0.13,16.0,WeatherDisplay:10.37,2013-12-21 10:25:00,
2013-12-21 10:30:00,43.2,41.1,29.46,SSW,198,12.0,17.0,92,0.00,BKN,,0.13,14.0,WeatherDisplay:10.37,2013-12-21 10:30:00,
2013-12-21 10:40:00,43.7,41.5,29.46,SSW,198,10.0,14.0,92,0.00,BKN,,0.13,18.0,WeatherDisplay:10.37,2013-12-21 10:40:00,
2013-12-21 10:45:00,44.0,41.8,29.45,SSW,199,9.0,15.0,92,0.00,BKN,,0.13,21.0,WeatherDisplay:10.37,2013-12-21 10:45:00,
2013-12-21 10:50:00,44.2,42.0,29.45,SSW,201,8.0,13.0,92,0.00,BKN,,0.13,18.0,WeatherDisplay:10.37,2013-12-21 10:50:00,
2013-12-21 11:01:00,44.7,42.5,29.45,SSW,209,8.0,17.0,92,0.00,BKN,,0.13,16.0,WeatherDisplay:10.37,2013-12-21 11:01:00,
2013-12-21 11:11:00,45.0,42.8,29.44,South,188,9.0,13.0,92,0.00,BKN,,0.13,18.0,WeatherDisplay:10.37,2013-12-21 11:11:00,
2013-12-21 11:20:00,45.4,43.2,29.44,SSW,197,9.0,17.0,92,0.00,BKN,,0.13,11.0,WeatherDisplay:10.37,2013-12-21 11:20:00,
2013-12-21 11:30:00,45.9,43.4,29.44,SSW,208,7.0,15.0,91,0.00,BKN,,0.13,14.0,WeatherDisplay:10.37,2013-12-21 11:30:00,
2013-12-21 11:35:00,46.0,43.2,29.44,SSW,212,9.0,18.0,90,0.00,BKN,,0.13,18.0,WeatherDisplay:10.37,2013-12-21 11:35:00,
2013-12-21 11:40:00,46.0,42.9,29.44,SSW,213,8.0,14.0,89,0.00,BKN,,0.13,25.0,WeatherDisplay:10.37,2013-12-21 11:40:00,
2013-12-21 11:45:00,46.1,43.0,29.43,SSW,211,7.0,13.0,89,0.00,BKN,,0.13,25.0,WeatherDisplay:10.37,2013-12-21 11:45:00,
2013-12-21 11:51:00,46.1,43.0,29.43,SSW,207,9.0,13.0,89,0.00,BKN,,0.13,28.0,WeatherDisplay:10.37,2013-12-21 11:51:00,
2013-12-21 12:01:00,46.2,43.1,29.42,SSW,204,6.0,10.0,89,0.00,BKN,,0.13,16.0,WeatherDisplay:10.37,2013-12-21 12:01:00,
2013-12-21 12:11:00,46.2,43.1,29.41,SSW,199,5.0,10.0,89,0.00,BKN,,0.13,11.0,WeatherDisplay:10.37,2013-12-21 12:11:00,
2013-12-21 12:16:00,46.0,42.4,29.42,SSW,207,14.0,23.0,87,0.01,RA,,0.13,7.0,WeatherDisplay:10.37,2013-12-21 12:16:00,
2013-12-21 12:22:00,45.3,42.0,29.42,SW,217,15.0,24.0,88,0.01,RA,,0.14,7.0,WeatherDisplay:10.37,2013-12-21 12:22:00,
2013-12-21 12:31:00,44.2,40.9,29.41,SW,225,12.0,22.0,88,0.01,RA,,0.16,16.0,WeatherDisplay:10.37,2013-12-21 12:31:00,
2013-12-21 12:41:00,43.4,40.4,29.41,SW,218,9.0,17.0,89,0.02,RA,,0.17,11.0,WeatherDisplay:10.37,2013-12-21 12:41:00,
2013-12-21 12:46:00,43.2,40.2,29.42,SW,222,18.0,27.0,89,0.00,RA,,0.17,11.0,WeatherDisplay:10.37,2013-12-21 12:46:00,
2013-12-21 12:50:00,42.6,39.3,29.42,SW,233,13.0,25.0,88,0.01,RA,,0.18,14.0,WeatherDisplay:10.37,2013-12-21 12:50:00,
2013-12-21 12:55:00,42.3,39.3,29.42,SW,230,16.0,25.0,89,0.01,RA,,0.19,14.0,WeatherDisplay:10.37,2013-12-21 12:55:00,
2013-12-21 13:01:00,42.1,38.8,29.42,SW,227,14.0,25.0,88,0.00,RA,,0.19,14.0,WeatherDisplay:10.37,2013-12-21 13:01:00,
2013-12-21 13:11:00,41.8,39.1,29.42,SW,218,16.0,24.0,90,0.00,RA,,0.20,12.0,WeatherDisplay:10.37,2013-12-21 13:11:00,
2013-12-21 13:16:00,41.5,38.8,29.42,SW,224,15.0,27.0,90,0.02,RA,,0.22,11.0,WeatherDisplay:10.37,2013-12-21 13:16:00,
2013-12-21 13:21:00,41.5,39.1,29.41,SW,220,7.0,16.0,91,0.00,RA,,0.22,21.0,WeatherDisplay:10.37,2013-12-21 13:21:00,
2013-12-21 13:31:00,41.6,39.4,29.41,SSW,209,7.0,12.0,92,0.00,RA,,0.23,32.0,WeatherDisplay:10.37,2013-12-21 13:31:00,
2013-12-21 13:41:00,41.8,39.6,29.41,SW,219,10.0,19.0,92,0.00,RA,,0.24,40.0,WeatherDisplay:10.37,2013-12-21 13:41:00,
2013-12-21 13:46:00,41.9,39.7,29.40,SW,221,10.0,20.0,92,0.01,RA,,0.24,54.0,WeatherDisplay:10.37,2013-12-21 13:46:00,
2013-12-21 13:51:00,41.9,39.7,29.40,SW,223,9.0,16.0,92,0.01,RA,,0.25,21.0,WeatherDisplay:10.37,2013-12-21 13:51:00,
2013-12-21 14:01:00,41.7,39.3,29.39,SW,221,8.0,22.0,91,0.00,BKN,,0.25,18.0,WeatherDisplay:10.37,2013-12-21 14:01:00,
2013-12-21 14:11:00,41.7,39.0,29.38,SSW,205,6.0,12.0,90,0.00,BKN,,0.25,28.0,WeatherDisplay:10.37,2013-12-21 14:11:00,
2013-12-21 14:16:00,41.7,39.3,29.38,SSW,202,7.0,12.0,91,0.00,BKN,,0.25,47.0,WeatherDisplay:10.37,2013-12-21 14:16:00,
2013-12-21 14:21:00,41.8,39.4,29.39,SSW,203,7.0,10.0,91,0.00,BKN,,0.25,28.0,WeatherDisplay:10.37,2013-12-21 14:21:00,
2013-12-21 14:31:00,42.2,39.8,29.38,SSW,201,7.0,12.0,91,0.00,BKN,,0.25,97.0,WeatherDisplay:10.37,2013-12-21 14:31:00,
2013-12-21 14:41:00,43.2,40.7,29.38,SSW,201,7.0,13.0,91,0.00,FEW,,0.25,90.0,WeatherDisplay:10.37,2013-12-21 14:41:00,
2013-12-21 14:51:00,43.9,41.1,29.38,SW,216,13.0,20.0,90,0.00,BKN,,0.25,21.0,WeatherDisplay:10.37,2013-12-21 14:51:00,
2013-12-21 15:01:00,44.1,41.1,29.38,SSW,212,10.0,17.0,89,0.00,BKN,,0.25,23.0,WeatherDisplay:10.37,2013-12-21 15:01:00,
2013-12-21 15:11:00,44.1,40.5,29.39,SW,220,13.0,21.0,87,0.00,BKN,,0.25,23.0,WeatherDisplay:10.37,2013-12-21 15:11:00,
2013-12-21 15:16:00,43.9,40.0,29.39,SW,224,10.0,20.0,86,0.00,BKN,,0.25,23.0,WeatherDisplay:10.37,2013-12-21 15:16:00,
2013-12-21 15:26:00,43.5,39.9,29.39,SW,223,9.0,17.0,87,0.00,BKN,,0.25,14.0,WeatherDisplay:10.37,2013-12-21 15:26:00,
2013-12-21 15:31:00,43.5,39.9,29.39,SW,219,8.0,13.0,87,0.00,BKN,,0.25,30.0,WeatherDisplay:10.37,2013-12-21 15:31:00,
2013-12-21 15:41:00,43.3,39.7,29.40,SW,220,9.0,16.0,87,0.00,BKN,,0.25,16.0,WeatherDisplay:10.37,2013-12-21 15:41:00,
2013-12-21 15:51:00,43.2,39.3,29.41,SW,216,8.0,15.0,86,0.00,BKN,,0.25,11.0,WeatherDisplay:10.37,2013-12-21 15:51:00,
2013-12-21 16:01:00,43.2,39.3,29.41,SW,218,8.0,15.0,86,0.00,BKN,,0.25,7.0,WeatherDisplay:10.37,2013-12-21 16:01:00,
2013-12-21 16:11:00,43.4,39.2,29.41,SW,221,9.0,14.0,85,0.00,BKN,,0.25,5.0,WeatherDisplay:10.37,2013-12-21 16:11:00,
2013-12-21 16:21:00,43.5,39.6,29.41,SSW,213,9.0,17.0,86,0.00,OVC,,0.25,0.0,WeatherDisplay:10.37,2013-12-21 16:21:00,
2013-12-21 16:31:00,43.4,39.8,29.42,SSW,210,7.0,14.0,87,0.00,OVC,,0.25,0.0,WeatherDisplay:10.37,2013-12-21 16:31:00,
2013-12-21 16:41:00,43.5,39.6,29.42,SW,225,13.0,22.0,86,0.00,OVC,,0.25,0.0,WeatherDisplay:10.37,2013-12-21 16:41:00,
2013-12-21 16:51:00,41.5,37.6,29.44,WSW,254,13.0,21.0,86,0.00,RA,,0.27,0.0,WeatherDisplay:10.37,2013-12-21 16:51:00,
2013-12-21 17:01:00,39.6,36.3,29.45,West,264,13.0,20.0,88,0.00,CLR,,0.27,0.0,WeatherDisplay:10.37,2013-12-21 17:01:00,
2013-12-21 17:11:00,39.2,36.2,29.45,WSW,254,10.0,16.0,89,0.00,CLR,,0.27,0.0,WeatherDisplay:10.37,2013-12-21 17:11:00,
2013-12-21 17:16:00,39.2,36.3,29.45,WSW,239,9.0,16.0,89,0.00,CLR,,0.27,0.0,WeatherDisplay:10.37,2013-12-21 17:16:00,
2013-12-21 17:21:00,39.3,36.3,29.45,SW,230,9.0,17.0,89,0.00,CLR,,0.27,0.0,WeatherDisplay:10.37,2013-12-21 17:21:00,
2013-12-21 17:31:00,39.4,36.1,29.45,SW,224,7.0,13.0,88,0.00,CLR,,0.27,0.0,WeatherDisplay:10.37,2013-12-21 17:31:00,
2013-12-21 17:41:00,39.3,36.1,29.46,SW,217,9.0,15.0,88,0.00,CLR,,0.27,0.0,WeatherDisplay:10.37,2013-12-21 17:41:00,
2013-12-21 17:46:00,39.6,36.0,29.46,SSW,211,9.0,13.0,87,0.00,CLR,,0.27,0.0,WeatherDisplay:10.37,2013-12-21 17:46:00,
2013-12-21 17:51:00,40.0,36.1,29.46,SSW,211,9.0,15.0,86,0.00,CLR,,0.27,0.0,WeatherDisplay:10.37,2013-12-21 17:51:00,
2013-12-21 17:56:00,40.4,36.3,29.46,SW,214,9.0,20.0,85,0.00,CLR,,0.27,0.0,WeatherDisplay:10.37,2013-12-21 17:56:00,
2013-12-21 18:01:00,40.7,36.6,29.46,SW,216,8.0,16.0,85,0.00,CLR,,0.27,0.0,WeatherDisplay:10.37,2013-12-21 18:01:00,
2013-12-21 18:11:00,41.3,37.4,29.47,SSW,213,9.0,16.0,86,0.00,CLR,,0.27,0.0,WeatherDisplay:10.37,2013-12-21 18:11:00,
2013-12-21 18:16:00,41.4,37.5,29.46,SSW,212,9.0,15.0,86,0.00,CLR,,0.27,0.0,WeatherDisplay:10.37,2013-12-21 18:16:00,
2013-12-21 18:26:00,41.6,37.7,29.46,SSW,211,7.0,10.0,86,0.00,CLR,,0.27,0.0,WeatherDisplay:10.37,2013-12-21 18:26:00,
2013-12-21 18:31:00,41.7,38.2,29.46,SW,214,8.0,14.0,87,0.00,CLR,,0.27,0.0,WeatherDisplay:10.37,2013-12-21 18:31:00,
2013-12-21 18:36:00,42.0,38.4,29.47,SW,215,10.0,16.0,87,0.00,CLR,,0.27,0.0,WeatherDisplay:10.37,2013-12-21 18:36:00,
2013-12-21 18:41:00,42.4,38.5,29.46,SW,214,9.0,17.0,86,0.00,CLR,,0.27,0.0,WeatherDisplay:10.37,2013-12-21 18:41:00,
2013-12-21 18:46:00,42.7,38.5,29.47,SSW,210,14.0,21.0,85,0.00,CLR,,0.27,0.0,WeatherDisplay:10.37,2013-12-21 18:46:00,
2013-12-21 18:51:00,42.9,38.4,29.47,SW,215,10.0,22.0,84,0.00,CLR,,0.27,0.0,WeatherDisplay:10.37,2013-12-21 18:51:00,
2013-12-21 19:01:00,43.1,37.7,29.48,SSW,213,14.0,24.0,81,0.00,CLR,,0.27,0.0,WeatherDisplay:10.37,2013-12-21 19:01:00,
2013-12-21 19:11:00,43.5,37.4,29.48,SW,218,12.0,24.0,79,0.00,CLR,,0.27,0.0,WeatherDisplay:10.37,2013-12-21 19:11:00,
2013-12-21 19:16:00,43.5,37.8,29.48,SW,216,12.0,21.0,80,0.00,CLR,,0.27,0.0,WeatherDisplay:10.37,2013-12-21 19:16:00,
2013-12-21 19:21:00,43.8,38.0,29.48,SW,218,16.0,22.0,80,0.00,CLR,,0.27,0.0,WeatherDisplay:10.37,2013-12-21 19:21:00,
2013-12-21 19:31:00,43.8,37.4,29.48,SW,217,26.0,32.0,78,0.00,CLR,,0.27,0.0,WeatherDisplay:10.37,2013-12-21 19:31:00,
2013-12-21 19:36:00,42.6,36.6,29.48,SW,227,18.0,32.0,79,0.00,CLR,,0.27,0.0,WeatherDisplay:10.37,2013-12-21 19:36:00,
2013-12-21 19:46:00,42.2,35.8,29.48,SW,216,15.0,24.0,78,0.00,CLR,,0.27,0.0,WeatherDisplay:10.37,2013-12-21 19:46:00,
2013-12-21 19:51:00,42.2,36.2,29.48,SSW,212,10.0,20.0,79,0.00,CLR,,0.27,0.0,WeatherDisplay:10.37,2013-12-21 19:51:00,
2013-12-21 19:56:00,42.0,36.6,29.48,SSW,212,12.0,20.0,81,0.00,CLR,,0.27,0.0,WeatherDisplay:10.37,2013-12-21 19:56:00,
2013-12-21 20:04:00,41.8,36.4,29.48,SW,214,12.0,20.0,81,0.00,CLR,,0.27,0.0,WeatherDisplay:10.37,2013-12-21 20:04:00,
2013-12-21 20:12:00,41.4,36.3,29.48,SSW,206,9.0,18.0,82,0.00,CLR,,0.27,0.0,WeatherDisplay:10.37,2013-12-21 20:12:00,
2013-12-21 20:21:00,41.7,36.6,29.48,SSW,211,10.0,15.0,82,0.00,CLR,,0.27,0.0,WeatherDisplay:10.37,2013-12-21 20:21:00,
2013-12-21 20:26:00,41.7,36.6,29.49,SSW,203,9.0,15.0,82,0.00,CLR,,0.27,0.0,WeatherDisplay:10.37,2013-12-21 20:26:00,
2013-12-21 20:31:00,41.8,37.0,29.49,SSW,207,10.0,20.0,83,0.00,CLR,,0.27,0.0,WeatherDisplay:10.37,2013-12-21 20:31:00,
2013-12-21 20:36:00,41.9,37.2,29.49,SSW,211,12.0,20.0,83,0.00,CLR,,0.27,0.0,WeatherDisplay:10.37,2013-12-21 20:36:00,
2013-12-21 20:41:00,42.2,37.4,29.49,SSW,208,13.0,20.0,83,0.00,CLR,,0.27,0.0,WeatherDisplay:10.37,2013-12-21 20:41:00,
2013-12-21 20:46:00,42.5,37.4,29.49,SSW,208,9.0,17.0,82,0.00,CLR,,0.27,0.0,WeatherDisplay:10.37,2013-12-21 20:46:00,
2013-12-21 20:51:00,42.6,37.8,29.49,SSW,206,10.0,20.0,83,0.00,CLR,,0.27,0.0,WeatherDisplay:10.37,2013-12-21 20:51:00,
2013-12-21 21:01:00,43.3,38.5,29.49,SSW,205,10.0,16.0,83,0.00,CLR,,0.27,0.0,WeatherDisplay:10.37,2013-12-21 21:01:00,
2013-12-21 21:11:00,43.9,39.1,29.48,SSW,204,13.0,20.0,83,0.00,CLR,,0.27,0.0,WeatherDisplay:10.37,2013-12-21 21:11:00,
2013-12-21 21:16:00,44.2,39.4,29.48,SSW,203,13.0,20.0,83,0.00,CLR,,0.27,0.0,WeatherDisplay:10.37,2013-12-21 21:16:00,
2013-12-21 21:21:00,44.2,39.1,29.48,SSW,202,9.0,18.0,82,0.00,CLR,,0.27,0.0,WeatherDisplay:10.37,2013-12-21 21:21:00,
2013-12-21 21:26:00,44.2,37.4,29.48,SSW,204,10.0,26.0,77,0.00,CLR,,0.27,0.0,WeatherDisplay:10.37,2013-12-21 21:26:00,
2013-12-21 21:31:00,44.0,37.3,29.48,SSW,211,10.0,22.0,77,0.00,CLR,,0.27,0.0,WeatherDisplay:10.37,2013-12-21 21:31:00,
2013-12-21 21:41:00,43.9,37.5,29.48,SSW,212,10.0,23.0,78,0.00,CLR,,0.27,0.0,WeatherDisplay:10.37,2013-12-21 21:41:00,
2013-12-21 21:46:00,43.9,37.5,29.48,SSW,211,13.0,22.0,78,0.00,CLR,,0.27,0.0,WeatherDisplay:10.37,2013-12-21 21:46:00,
2013-12-21 21:51:00,43.8,37.8,29.48,SSW,210,13.0,24.0,79,0.00,CLR,,0.27,0.0,WeatherDisplay:10.37,2013-12-21 21:51:00,
2013-12-21 21:56:00,43.9,37.8,29.48,SSW,209,13.0,24.0,79,0.00,CLR,,0.27,0.0,WeatherDisplay:10.37,2013-12-21 21:56:00,
2013-12-21 22:01:00,43.9,37.8,29.48,SSW,207,14.0,21.0,79,0.00,CLR,,0.27,0.0,WeatherDisplay:10.37,2013-12-21 22:01:00,
2013-12-21 22:11:00,43.9,37.8,29.48,SSW,210,13.0,24.0,79,0.00,CLR,,0.27,0.0,WeatherDisplay:10.37,2013-12-21 22:11:00,
2013-12-21 22:16:00,44.1,37.7,29.48,SSW,208,10.0,20.0,78,0.00,CLR,,0.27,0.0,WeatherDisplay:10.37,2013-12-21 22:16:00,
2013-12-21 22:21:00,44.1,38.0,29.47,SSW,211,13.0,18.0,79,0.00,CLR,,0.27,0.0,WeatherDisplay:10.37,2013-12-21 22:21:00,
2013-12-21 22:26:00,44.3,37.9,29.47,SSW,209,12.0,22.0,78,0.00,CLR,,0.27,0.0,WeatherDisplay:10.37,2013-12-21 22:26:00,
2013-12-21 22:31:00,44.3,38.2,29.47,SSW,207,9.0,18.0,79,0.00,CLR,,0.27,0.0,WeatherDisplay:10.37,2013-12-21 22:31:00,
2013-12-21 22:41:00,44.5,38.0,29.46,SSW,197,12.0,21.0,78,0.00,CLR,,0.27,0.0,WeatherDisplay:10.37,2013-12-21 22:41:00,
2013-12-21 22:46:00,44.6,37.5,29.45,SSW,204,15.0,27.0,76,0.00,CLR,,0.27,0.0,WeatherDisplay:10.37,2013-12-21 22:46:00,
2013-12-21 22:56:00,44.1,38.0,29.46,SSW,209,21.0,31.0,79,0.00,RA,,0.28,0.0,WeatherDisplay:10.37,2013-12-21 22:56:00,
2013-12-21 23:01:00,43.7,38.0,29.46,SSW,200,14.0,24.0,80,0.00,CLR,,0.28,0.0,WeatherDisplay:10.37,2013-12-21 23:01:00,
2013-12-21 23:11:00,43.2,37.8,29.46,SSW,196,12.0,28.0,81,0.00,CLR,,0.28,0.0,WeatherDisplay:10.37,2013-12-21 23:11:00,
2013-12-21 23:16:00,43.0,37.9,29.45,SSW,202,10.0,18.0,82,0.00,CLR,,0.28,0.0,WeatherDisplay:10.37,2013-12-21 23:16:00,
2013-12-21 23:26:00,43.2,37.8,29.45,SSW,210,12.0,24.0,81,0.00,CLR,,0.28,0.0,WeatherDisplay:10.37,2013-12-21 23:26:00,
2013-12-21 23:31:00,43.2,37.4,29.45,SSW,212,12.0,22.0,80,0.00,CLR,,0.28,0.0,WeatherDisplay:10.37,2013-12-21 23:31:00,
2013-12-21 23:41:00,43.3,37.5,29.45,SSW,209,10.0,20.0,80,0.00,CLR,,0.28,0.0,WeatherDisplay:10.37,2013-12-21 23:41:00,
2013-12-21 23:46:00,43.5,37.7,29.45,SSW,201,16.0,25.0,80,0.00,CLR,,0.28,0.0,WeatherDisplay:10.37,2013-12-21 23:46:00,
2013-12-21 23:51:00,43.7,37.9,29.45,SSW,204,12.0,25.0,80,0.00,CLR,,0.28,0.0,WeatherDisplay:10.37,2013-12-21 23:51:00,